Location: Ripley
(48.3812°N, 115.4473°W)
Time: 04:59:24
(UTC+00:00)

EO-88 - Pass Details

Date: 30 June 2022
Orbit: 453 x 461 km, 97.3° (Epoch: 17 August)

Event Time Altitude Azimuth Distance (km) Brightness Sun altitude
Exits shadow 05:16:38 12° 180° (S) 1,499 ? -11.1°
Maximum altitude 05:19:47 58° 259° (W) 556 ? -11.4°
Drops below altitude 10° 05:23:15 10° 340° (NNW) 1,637 ? -11.7°
Sets 05:25:20 0° 344° (NNW) 2,518 ? -11.9°
